Location: Hope
(40.9110°N, 74.9680°W)
Time: 18:43:44
(UTC-04:00)

N. Korean satellite - Pass Details

Date: 02 February 2019
Orbit: 457 x 508 km, 97.2° (Epoch: 18 April)

Event Time Altitude Azimuth Distance (km) Brightness Sun altitude
Rises 05:31:14 0° 25° (NNE) 2,578 10.5 -18.8°
Reaches altitude 10° 05:33:38 10° 40° (NE) 1,681 9.7 -18.4°
Maximum altitude 05:36:35 23° 95° (E) 1,057 9.2 -17.8°
Drops below altitude 10° 05:39:28 10° 150° (SSE) 1,644 9.7 -17.3°
Sets 05:41:47 0° 165° (SSE) 2,506 10.5 -16.8°
